Location: Saint Louis
(38.6270°N, 90.1980°W)
Time: 00:25:40
(UTC-05:00)

ISS - Pass Details

Date: 13 October 2013
Orbit: 402 x 403 km, 51.6° (Epoch: 28 June)

Event Time Altitude Azimuth Distance (km) Brightness Sun altitude
Rises 20:04:23 0° 298° (WNW) 2,372 1.8 -20.2°
Reaches altitude 10° 20:08:27 10° 346° (NNW) 1,523 -0.2 -21.0°
Maximum altitude 20:08:49 10° 352° (N) 1,517 -0.3 -21.0°
Drops below altitude 10° 20:09:11 10° 359° (N) 1,526 -0.3 -21.1°
Enters shadow 20:09:34 10° 5° (N) 1,552 -0.4 -21.2°
